TimeEST,TemperatureF,Dew PointF,Humidity,Sea Level PressureIn,VisibilityMPH,Wind Direction,Wind SpeedMPH,Gust SpeedMPH,PrecipitationIn,Events,Conditions,WindDirDegrees,DateUTC
12:54 AM,48.0,46.9,96,29.25,-9999.0,North,-9999.0,-,0.02,,Unknown,0,2013-01-31 05:54:00
1:54 AM,50.0,48.9,96,29.21,-9999.0,North,-9999.0,-,0.08,,Unknown,0,2013-01-31 06:54:00
2:54 AM,48.9,48.0,97,29.10,-9999.0,North,-9999.0,-,0.04,,Unknown,0,2013-01-31 07:54:00
3:54 AM,46.9,46.0,97,29.03,-9999.0,North,-9999.0,-,0.09,,Unknown,0,2013-01-31 08:54:00
4:54 AM,46.0,45.0,96,28.92,-9999.0,North,-9999.0,-,0.06,,Unknown,0,2013-01-31 09:54:00
5:54 AM,44.1,44.1,100,28.90,-9999.0,North,-9999.0,-,0.12,,Unknown,0,2013-01-31 10:54:00
6:54 AM,48.0,48.0,100,28.84,-9999.0,North,-9999.0,-,0.07,,Unknown,0,2013-01-31 11:54:00
7:54 AM,50.0,50.0,100,28.79,-9999.0,North,-9999.0,-,0.01,,Unknown,0,2013-01-31 12:54:00
8:54 AM,43.0,39.9,89,28.87,-9999.0,North,-9999.0,-,0.14,,Unknown,0,2013-01-31 13:54:00
9:54 AM,43.0,36.0,76,28.95,-9999.0,North,-9999.0,-,N/A,,Unknown,0,2013-01-31 14:54:00
10:54 AM,39.9,32.0,73,29.00,-9999.0,North,-9999.0,-,N/A,,Unknown,0,2013-01-31 15:54:00
11:54 AM,37.9,28.9,70,29.04,-9999.0,North,-9999.0,-,N/A,,Unknown,0,2013-01-31 16:54:00
12:54 PM,37.9,26.1,62,29.07,-9999.0,North,-9999.0,-,N/A,,Unknown,0,2013-01-31 17:54:00
1:54 PM,37.0,25.0,62,29.10,-9999.0,North,-9999.0,-,N/A,,Unknown,0,2013-01-31 18:54:00
2:54 PM,35.1,19.9,54,29.16,-9999.0,North,-9999.0,-,N/A,,Unknown,0,2013-01-31 19:54:00
3:54 PM,33.1,15.1,48,29.20,-9999.0,North,-9999.0,-,N/A,,Unknown,0,2013-01-31 20:54:00
4:54 PM,30.9,16.0,54,29.24,-9999.0,North,-9999.0,-,N/A,,Unknown,0,2013-01-31 21:54:00
5:54 PM,30.0,17.1,59,29.29,-9999.0,North,-9999.0,-,N/A,,Unknown,0,2013-01-31 22:54:00
6:54 PM,27.0,19.0,72,29.33,-9999.0,North,-9999.0,-,0.01,,Unknown,0,2013-01-31 23:54:00
7:54 PM,28.0,14.0,56,29.36,-9999.0,North,-9999.0,-,N/A,,Unknown,0,2013-02-01 00:54:00
8:54 PM,26.1,6.1,43,29.39,-9999.0,North,-9999.0,-,N/A,,Unknown,0,2013-02-01 01:54:00
9:54 PM,25.0,6.1,45,29.44,-9999.0,North,-9999.0,-,N/A,,Unknown,0,2013-02-01 02:54:00
10:54 PM,24.1,5.0,44,29.47,-9999.0,North,-9999.0,-,N/A,,Unknown,0,2013-02-01 03:54:00
11:54 PM,24.1,5.0,44,29.47,-9999.0,North,-9999.0,-,N/A,,Unknown,0,2013-02-01 04:54:00